Hatchet Creek Weather Center

Moon Phase Calendar



Online Cameras

 


      

Current Conditions in Rockford
1/23/2022 8:54:47 AM

31°F
Feels Like 25
Clear
Humidity
32%
Pressure
30.21"
Wind
6.2 mph (WNW)
Dew Point
7°F
UV Index
1/10 (Low)
Visibility
6 mi

Hourly Forecast

Date & Time Sun, Jan 23
8:00 AM
Sun, Jan 23
9:00 AM
Sun, Jan 23
10:00 AM
Sun, Jan 23
11:00 AM
Sun, Jan 23
12:00 PM
Sun, Jan 23
1:00 PM
Sun, Jan 23
2:00 PM
Sun, Jan 23
3:00 PM
Sun, Jan 23
4:00 PM
Sun, Jan 23
5:00 PM
Sun, Jan 23
6:00 PM
Sun, Jan 23
7:00 PM
Sun, Jan 23
8:00 PM
Sun, Jan 23
9:00 PM
Sun, Jan 23
10:00 PM
Sun, Jan 23
11:00 PM
Mon, Jan 24
12:00 AM
Mon, Jan 24
1:00 AM
Mon, Jan 24
2:00 AM
Mon, Jan 24
3:00 AM
Mon, Jan 24
4:00 AM
Mon, Jan 24
5:00 AM
Mon, Jan 24
6:00 AM
Mon, Jan 24
7:00 AM
Mon, Jan 24
8:00 AM
Mon, Jan 24
9:00 AM
Mon, Jan 24
10:00 AM
Mon, Jan 24
11:00 AM
Mon, Jan 24
12:00 PM
Mon, Jan 24
1:00 PM
Mon, Jan 24
2:00 PM
Mon, Jan 24
3:00 PM
Mon, Jan 24
4:00 PM
Mon, Jan 24
5:00 PM
Mon, Jan 24
6:00 PM
Mon, Jan 24
7:00 PM
Mon, Jan 24
8:00 PM
Mon, Jan 24
9:00 PM
Mon, Jan 24
10:00 PM
Mon, Jan 24
11:00 PM
Tue, Jan 25
12:00 AM
Tue, Jan 25
1:00 AM
Tue, Jan 25
2:00 AM
Tue, Jan 25
3:00 AM
Tue, Jan 25
4:00 AM
Tue, Jan 25
5:00 AM
Tue, Jan 25
6:00 AM
Tue, Jan 25
7:00 AM
Condition
Clear

Clear

Clear

Clear

Clear

Clear

Clear

Clear

Clear

Clear

Clear

Clear

Clear

Clear

Clear

Clear

Clear

Clear

Clear

Clear

Clear

Clear

Clear

Clear

Clear

Clear

Clear

Clear

Clear

Clouds

Clouds

Clouds

Clouds

Clouds

Clouds

Clouds

Clouds

Clouds

Clouds

Clouds

Clouds

Clouds

Clouds

Clouds

Clouds

Clouds

Clouds

Clouds
Temperature 31°F31°F33°F36°F40°F45°F49°F49°F47°F40°F37°F35°F34°F34°F33°F33°F33°F32°F32°F32°F32°F32°F32°F32°F37°F42°F47°F50°F52°F53°F53°F52°F49°F43°F42°F42°F42°F41°F41°F41°F41°F41°F41°F41°F41°F41°F41°F42°F
Feels Like 25°F25°F26°F30°F35°F40°F46°F45°F43°F36°F33°F32°F31°F30°F30°F30°F28°F28°F28°F28°F28°F28°F29°F32°F37°F40°F44°F48°F49°F50°F50°F49°F47°F42°F41°F40°F39°F39°F39°F38°F41°F39°F39°F41°F41°F41°F41°F42°F
Cloudiness 0%0%0%0%0%0%0%0%0%0%0%0%0%0%0%0%0%0%0%0%0%0%0%0%0%0%1%1%10%99%99%100%100%100%100%100%100%100%100%100%100%100%100%100%100%100%100%100%
Visibility 6 mi6 mi6 mi6 mi6 mi6 mi6 mi6 mi6 mi6 mi6 mi6 mi6 mi6 mi6 mi6 mi6 mi6 mi6 mi6 mi6 mi6 mi6 mi6 mi6 mi6 mi6 mi6 mi6 mi6 mi6 mi6 mi6 mi6 mi6 mi6 mi6 mi6 mi6 mi6 mi6 mi6 mi6 mi6 mi6 mi6 mi6 mi6 mi
Precipitation 0%0%0%0%0%0%0%0%0%0%0%0%0%0%0%0%0%0%0%0%0%0%0%0%0%0%0%0%0%0%0%0%0%0%0%0%0%0%0%0%0%0%0%0%0%0%0%0%
Humidity 35%32%31%31%32%33%35%38%46%61%68%72%75%77%79%81%83%85%86%86%87%87%88%86%74%62%56%52%50%50%51%56%67%77%79%80%80%81%82%83%83%82%82%81%81%80%82%80%
Dew Point 9°F7°F8°F11°F15°F19°F23°F24°F27°F27°F27°F27°F27°F27°F27°F27°F28°F28°F28°F28°F28°F28°F28°F28°F29°F30°F31°F33°F34°F35°F35°F36°F38°F37°F36°F36°F36°F36°F36°F36°F35°F35°F35°F35°F35°F35°F35°F36°F
Pressure 30.21"30.21"30.21"30.21"30.18"30.12"30.06"30.06"30.06"30.06"30.06"30.09"30.09"30.09"30.09"30.09"30.09"30.06"30.06"30.06"30.06"30.06"30.06"30.03"30.03"30.03"30.06"30.03"30"29.94"29.94"29.94"29.94"29.94"29.97"30"30"30"29.97"29.97"29.97"29.97"29.97"29.97"29.97"29.97"30"29.97"
Wind Speed 5.6 mph6.2 mph7.2 mph7.9 mph8 mph8.7 mph8.7 mph9 mph7.4 mph5 mph4.4 mph3.9 mph3.8 mph4.2 mph4 mph3.6 mph4.2 mph4.1 mph3.8 mph3.9 mph3.6 mph3.5 mph3.1 mph2.8 mph2.3 mph3.8 mph5.2 mph5.8 mph6.3 mph7 mph7.4 mph6.5 mph4.8 mph3.3 mph3.2 mph3.8 mph3.8 mph3.7 mph3.9 mph3.6 mph3 mph3.1 mph3.2 mph2.5 mph2.2 mph0.8 mph1.9 mph2.5 mph
Wind
Direction
301°
WNW
298°
WNW
296°
WNW
286°
WNW
284°
WNW
285°
WNW
277°
W
281°
W
283°
WNW
280°
W
281°
W
289°
WNW
283°
WNW
280°
W
285°
WNW
295°
WNW
293°
WNW
291°
WNW
297°
WNW
287°
WNW
289°
WNW
288°
WNW
289°
WNW
304°
NW
256°
WSW
247°
WSW
243°
WSW
244°
WSW
235°
SW
229°
SW
229°
SW
230°
SW
218°
SW
220°
SW
214°
SW
226°
SW
215°
SW
214°
SW
210°
SSW
225°
SW
227°
SW
231°
SW
249°
WSW
232°
SW
265°
W
152°
SSE
226°
SW
95°
E

Daily Forecast

Date High Low Precip. Humidity
Today
Jan 23

Clear
49 °F
27 °F
0%
31%
Monday
Jan 24

Clear
53 °F
32 °F
0%
52%
Tuesday
Jan 25

Clouds
47 °F
41 °F
0%
72%
Wednesday
Jan 26

Clear
47 °F
31 °F
0%
35%
Thursday
Jan 27

Clouds
54 °F
30 °F
0%
55%
Friday
Jan 28

Rain
41 °F
27 °F
20%
67%
Saturday
Jan 29

Clear
41 °F
22 °F
0%
20%
Sunday
Jan 30

Clear
51 °F
28 °F
0%
26%
Monday
Jan 31

Clouds
54 °F
32 °F
0%
40%
Tuesday
Feb 1

Clouds
55 °F
39 °F
20%
68%
Wednesday
Feb 2

Rain
52 °F
46 °F
100%
91%
Thursday
Feb 3

Rain
52 °F
43 °F
20%
75%
Friday
Feb 4

Clouds
62 °F
44 °F
0%
62%
Saturday
Feb 5

Clouds
66 °F
47 °F
0%
56%
Sunday
Feb 6

Clouds
67 °F
54 °F
0%
70%
Monday
Feb 7

Clouds
73 °F
56 °F
0%
56%

Temperature 8-14 Day Outlook



Precipitation 8-14 Day Outlook




Quick Links
Hatchet Creek News
Hatchet Creek Photos
Hatchet Creek Videos




About Us
Contact Us
Site Map
Search Site
Advertise With Us
   
Hatchet.DiscoverRivers.com
THE HATCHET CREEK WEBSITE

Copyright 2022, Discover Rivers
Privacy    |    Legal